Le nostre stazioni meteo in Italia

Pubblicità
Il mio iltempo24.it
Monte Cimone, Italia (16134): Temperatura & dewpoint: 11.02.2019 13:00:00 - 17.02.2019 13:00:00 (CET)Monte Cimone, Italia (16134): velocità del vento: 11.02.2019 13:00:00 - 17.02.2019 13:00:00 (CET)Monte Cimone, Italia (16134): direzione del vento: 11.02.2019 13:00:00 - 17.02.2019 13:00:00 (CET)Monte Cimone, Italia (16134): visibility: 11.02.2019 13:00:00 - 17.02.2019 13:00:00 (CET)Monte Cimone, Italia (16134): ore di luce: 11.02.2019 13:00:00 - 17.02.2019 13:00:00 (CET)
Data & Tempo tt [°C] td [°C] ff [km/h] ff [kn] dd vv [km] sd [min]
17.02.2019 13:00:00 - - - - - - -
17.02.2019 12:00:00 - - - - - - -
17.02.2019 11:00:00 - - - - - - -
17.02.2019 10:00:00 - - - - - - -
17.02.2019 09:00:00 - - - - - - -
17.02.2019 08:00:00 - - - - - - -
17.02.2019 07:00:00 - - - - - - -
17.02.2019 06:00:00 - - - - - - -
17.02.2019 05:00:00 - - - - - - -
17.02.2019 04:00:00 - - - - - - -
17.02.2019 03:00:00 - - - - - - -
17.02.2019 02:00:00 - - - - - - -
17.02.2019 01:00:00 - - - - - - -
17.02.2019 00:00:00 - - - - - - -
16.02.2019 23:00:00 - - - - - - -
16.02.2019 22:00:00 - - - - - - -
16.02.2019 21:00:00 - - - - - - -
16.02.2019 20:00:00 - - - - - - -
16.02.2019 19:00:00 - - - - - - -
16.02.2019 18:00:00 - - - - - - -
16.02.2019 17:00:00 - - - - - - -
16.02.2019 16:00:00 - - - - - - -
16.02.2019 15:00:00 - - - - - - -
16.02.2019 14:00:00 - - - - - - -
16.02.2019 13:00:00 - - - - - - -
16.02.2019 12:00:00 - - - - - - -
16.02.2019 11:00:00 - - - - - - -
16.02.2019 10:00:00 - - - - - - -
16.02.2019 09:00:00 - - - - - - -
16.02.2019 08:00:00 - - - - - - -
16.02.2019 07:00:00 - - - - - - -
16.02.2019 06:00:00 - - - - - - -
16.02.2019 05:00:00 - - - - - - -
16.02.2019 04:00:00 - - - - - - -
16.02.2019 03:00:00 - - - - - - -
16.02.2019 02:00:00 - - - - - - -
16.02.2019 01:00:00 - - - - - - -
16.02.2019 00:00:00 - - - - - - -
15.02.2019 23:00:00 - - - - - - -
15.02.2019 22:00:00 - - - - - - -
15.02.2019 21:00:00 - - - - - - -
15.02.2019 20:00:00 - - - - - - -
15.02.2019 19:00:00 - - - - - - -
15.02.2019 18:00:00 - - - - - - -
15.02.2019 17:00:00 - - - - - - -
15.02.2019 16:00:00 - - - - - - -
15.02.2019 15:00:00 - - - - - - -
15.02.2019 14:00:00 2,0 -14,6 15 8 N 50 60
15.02.2019 13:00:00 2,0 -14,6 16 9 N 50 60
15.02.2019 12:00:00 1,8 -14,8 22 12 N 50 60
15.02.2019 11:00:00 2,0 -12,2 24 13 N 50 60
15.02.2019 10:00:00 2,0 -11,5 34 18 NNE 50 60
15.02.2019 09:00:00 1,0 -14,2 31 17 N 50 60
15.02.2019 08:00:00 1,0 -14,2 26 14 N 30 30
15.02.2019 07:00:00 1,2 -14,9 24 13 N 30 -
15.02.2019 06:00:00 1,0 -15,5 21 11 NNE 30 -
15.02.2019 05:00:00 - - - - - - -
15.02.2019 04:00:00 1,4 -14,3 29 16 NNE 30 -
15.02.2019 03:00:00 1,4 -14,7 26 14 NNE 30 -
15.02.2019 02:00:00 - - - - - - -
15.02.2019 01:00:00 0,8 -12,6 29 16 NNE 30 -
15.02.2019 00:00:00 1,2 -13,3 24 13 N 30 -
14.02.2019 23:00:00 1,0 -12,7 24 13 N 30 -
14.02.2019 22:00:00 0,6 -9,1 22 12 NNE 30 -
14.02.2019 21:00:00 1,0 -8,8 18 10 NNO 30 -
14.02.2019 20:00:00 0,8 -9,0 18 10 NNO 30 -
14.02.2019 19:00:00 1,0 -8,3 22 12 NNO 30 -
14.02.2019 18:00:00 1,2 -8,3 21 11 NNO 30 12
14.02.2019 17:00:00 1,6 -8,5 21 11 NNO 50 60
14.02.2019 16:00:00 2,6 -6,5 16 9 NO 50 60
14.02.2019 15:00:00 2,8 -7,7 16 9 O 50 60
14.02.2019 14:00:00 3,4 -6,6 13 7 O 50 60
14.02.2019 13:00:00 3,4 -6,6 13 7 O 50 60
14.02.2019 12:00:00 3,4 -7,1 16 9 O 50 60
14.02.2019 11:00:00 2,6 -9,0 11 6 O 50 60
14.02.2019 10:00:00 2,0 -9,0 0 0 N 50 60
14.02.2019 09:00:00 1,0 -12,4 15 8 NE 50 24
14.02.2019 08:00:00 0,2 -12,1 9 5 NE 50 -
14.02.2019 07:00:00 0,0 -11,1 11 6 NNE 50 -
14.02.2019 06:00:00 0,0 -11,1 11 6 NNE 50 -
14.02.2019 05:00:00 0,0 -8,9 22 12 NNE 50 -
14.02.2019 04:00:00 -1,2 -7,8 28 15 N 40 -
14.02.2019 03:00:00 -1,2 -8,0 28 15 NNE 40 -
14.02.2019 02:00:00 -1,4 -7,3 37 20 NO 40 -
14.02.2019 01:00:00 -1,6 -7,1 37 20 NO 40 -
14.02.2019 00:00:00 -1,6 -7,5 46 25 NNO 40 -
13.02.2019 23:00:00 -1,6 -7,7 46 25 NNO 40 -
13.02.2019 22:00:00 -1,6 -8,8 37 20 NNO 50 -
13.02.2019 21:00:00 -1,6 -9,2 37 20 NNO 50 -
13.02.2019 20:00:00 -1,2 -10,5 29 16 N 50 -
13.02.2019 19:00:00 -1,2 -10,3 34 18 NNE 50 -
13.02.2019 18:00:00 -1,4 -10,2 15 8 NE 50 -
13.02.2019 17:00:00 -1,0 -10,4 22 12 NNE 50 36
13.02.2019 16:00:00 -1,0 -11,2 8 4 NNE 50 60
13.02.2019 15:00:00 -1,0 -10,9 11 6 N 50 60
13.02.2019 14:00:00 -1,8 -10,6 22 12 N 50 60
13.02.2019 13:00:00 -2,0 -12,1 34 18 N 50 60
13.02.2019 12:00:00 -2,2 -12,0 37 20 NNE 50 60
13.02.2019 11:00:00 -2,4 -12,4 48 26 NNE 50 60
13.02.2019 10:00:00 -2,0 -12,1 55 30 N 50 60
13.02.2019 09:00:00 -2,8 -12,5 44 24 N 50 48
13.02.2019 08:00:00 -3,0 -13,0 46 25 N 80 60
13.02.2019 07:00:00 -3,0 -13,5 42 23 N 80 -
13.02.2019 06:00:00 -3,0 -13,8 37 20 N 80 -
13.02.2019 05:00:00 -3,2 -14,3 39 21 NNE 50 -
13.02.2019 04:00:00 -3,6 -14,4 37 20 NNE 50 -
13.02.2019 03:00:00 -3,8 -14,0 37 20 NNE 50 -
13.02.2019 02:00:00 -3,8 -13,7 42 23 NNE 50 -
13.02.2019 01:00:00 -4,0 -13,9 44 24 NNE 50 -
13.02.2019 00:00:00 -3,8 -15,1 24 13 N 50 -
12.02.2019 23:00:00 -3,6 -16,5 34 18 N 50 -
12.02.2019 22:00:00 -3,6 -17,2 41 22 N 50 -
12.02.2019 21:00:00 -3,2 -17,9 44 24 N 50 -
12.02.2019 20:00:00 -3,0 -18,1 50 27 N 80 -
12.02.2019 19:00:00 -3,0 -18,1 46 25 N 80 -
12.02.2019 18:00:00 -3,0 -17,4 37 20 N 80 -
12.02.2019 17:00:00 -3,2 -17,6 29 16 N 80 60
12.02.2019 16:00:00 -3,0 -16,0 28 15 N 80 60
12.02.2019 15:00:00 -2,0 -15,1 24 13 N 80 60
12.02.2019 14:00:00 -1,8 -13,0 22 12 N 80 60
12.02.2019 13:00:00 -1,8 -10,1 29 16 NNE 50 60
12.02.2019 12:00:00 -3,4 -14,5 28 15 NNE 50 60
12.02.2019 11:00:00 -4,8 -17,0 34 18 NNE 50 60
12.02.2019 10:00:00 -5,2 -17,0 29 16 NNE 50 60
12.02.2019 09:00:00 -5,8 -16,4 37 20 NNE 50 60
12.02.2019 08:00:00 -6,2 -16,7 28 15 NNE 50 12
12.02.2019 07:00:00 -6,4 -15,9 37 20 NNO 50 -
12.02.2019 06:00:00 -6,4 -15,8 46 25 NNE 50 -
12.02.2019 05:00:00 -6,4 -15,6 55 30 NNE 40 -
12.02.2019 04:00:00 -6,6 -14,4 59 32 NE 40 -
12.02.2019 03:00:00 -6,4 -14,4 54 29 NNE 40 -
12.02.2019 02:00:00 -6,4 -14,2 46 25 NNE 40 -
12.02.2019 01:00:00 -6,4 -13,5 34 18 NNE 40 -
12.02.2019 00:00:00 -6,2 -14,0 39 21 NNE 40 -
11.02.2019 23:00:00 -6,0 -13,6 41 22 NNE 40 -
11.02.2019 22:00:00 -6,0 -13,6 34 18 NNE 40 -
11.02.2019 21:00:00 -6,0 -13,6 35 19 NE 40 -
11.02.2019 20:00:00 -5,8 -13,2 37 20 NNE 40 -
11.02.2019 19:00:00 -5,8 -12,5 46 25 NNO 40 -
11.02.2019 18:00:00 -5,4 -11,5 37 20 N 40 0
11.02.2019 17:00:00 -5,2 -10,9 37 20 NNE 40 0
11.02.2019 16:00:00 -5,2 -10,2 18 10 NNE 40 0
11.02.2019 15:00:00 -5,0 -10,7 37 20 NO 40 0
11.02.2019 14:00:00 -5,0 -11,0 55 30 NNO 40 0
11.02.2019 13:00:00 -5,0 -10,8 52 28 NNO 30 0

tt = Temperatura
td = dewpoint
ff = velocità del vento
dd = direzione del vento
vv = visibility
sd = ore di luce

Stazioni seguenti

WeatherPro
AMSI
MeteoEarth